FW6899 Weather Reports


time (UTC)temp
C
wind
direction
speed
KPH
gust
KPH
rain 1hr
cm
rain 24hr
cm
rain mn
cm
humidity
%
barometer
mb
20260503211016 18 207 3.2 11.3 0.00 0.00 0.00 60 1013.3
20260503210515 18 44 0.0 8.0 0.00 0.00 0.00 60 1013.5
20260503210033 18 217 1.6 8.0 0.00 0.00 0.00 60 1013.4
20260503205513 18 240 1.6 8.0 0.00 0.00 0.00 59 1013.5
20260503205022 18 209 0.0 8.0 0.00 0.00 0.00 60 1013.5
20260503204532 18 220 0.0 8.0 0.00 0.00 0.00 61 1013.4
20260503204013 18 211 1.6 8.0 0.00 0.00 0.00 59 1013.6
20260503203514 18 194 1.6 6.4 0.00 0.00 0.00 60 1013.6
20260503203035 18 0 0.0 11.3 0.00 0.00 0.00 61 1013.6
20260503202518 17 213 0.0 11.3 0.00 0.00 0.00 62 1013.7
20260503202013 18 224 1.6 6.4 0.00 0.00 0.00 63 1013.8
20260503201532 18 84 1.6 6.4 0.00 0.00 0.00 63 1013.7
20260503201013 18 60 0.0 6.4 0.00 0.00 0.00 60 1013.7
20260503200514 18 222 1.6 6.4 0.00 0.00 0.00 59 1013.8
20260503200034 18 214 0.0 4.8 0.00 0.00 0.00 59 1013.6
20260503195512 18 175 0.0 6.4 0.00 0.00 0.00 58 1013.7
20260503195015 18 229 0.0 6.4 0.00 0.00 0.00 59 1013.7
20260503194533 18 215 0.0 4.8 0.00 0.00 0.00 58 1013.8
20260503194013 18 0 0.0 4.8 0.00 0.00 0.00 59 1013.7
20260503193518 18 236 1.6 6.4 0.00 0.00 0.00 58 1013.9
20260503193036 18 0 0.0 6.4 0.00 0.00 0.00 60 1013.7
20260503192514 18 0 1.6 4.8 0.00 0.00 0.00 59 1013.8
20260503192017 18 37 0.0 6.4 0.00 0.00 0.00 58 1013.8
20260503191535 19 0 0.0 6.4 0.00 0.00 0.00 57 1013.9
20260503191013 19 215 0.0 3.2 0.00 0.00 0.00 55 1013.8
20260503190515 19 0 0.0 3.2 0.00 0.00 0.00 57 1013.8
20260503190035 18 0 0.0 8.0 0.00 0.00 0.00 59 1013.9
20260503185512 18 0 0.0 8.0 0.00 0.00 0.00 59 1013.7
20260503185015 18 136 0.0 3.2 0.00 0.00 0.00 59 1013.8
20260503184534 17 206 0.0 6.4 0.00 0.00 0.00 60 1013.8
20260503184014 17 0 0.0 6.4 0.00 0.00 0.00 61 1013.8
20260503183522 17 0 0.0 4.8 0.00 0.00 0.00 59 1013.9
20260503183038 18 70 0.0 4.8 0.00 0.00 0.00 59 1013.9
20260503182513 18 0 1.6 4.8 0.00 0.00 0.00 57 1013.9
20260503182015 18 0 0.0 4.8 0.00 0.00 0.00 60 1013.9
20260503181606 18 71 0.0 4.8 0.00 0.00 0.00 60 1013.7
20260503181014 18 194 0.0 4.8 0.00 0.00 0.00 61 1013.8
20260503180514 18 213 0.0 4.8 0.00 0.00 0.00 61 1013.7
20260503180031 17 0 0.0 6.4 0.00 0.00 0.00 62 1013.7
20260503175513 17 169 1.6 6.4 0.00 0.00 0.00 62 1013.9
20260503175015 17 221 0.0 4.8 0.00 0.00 0.00 65 1013.8
20260503174531 16 0 0.0 4.8 0.00 0.00 0.00 65 1013.8
20260503174016 17 71 0.0 4.8 0.00 0.00 0.00 65 1013.8
20260503173514 17 223 0.0 6.4 0.00 0.00 0.00 66 1013.7
20260503173045 16 0 0.0 6.4 0.00 0.00 0.00 67 1013.7
20260503172515 16 0 0.0 4.8 0.00 0.00 0.00 68 1013.7
20260503172014 16 179 0.0 4.8 0.00 0.00 0.00 69 1013.8
20260503171531 16 51 0.0 4.8 0.00 0.00 0.00 68 1013.8
20260503171012 16 186 0.0 8.0 0.00 0.00 0.00 69 1013.8
20260503170517 15 215 0.0 8.0 0.00 0.00 0.00 70 1013.9
20260503150520 13 0 0.0 1.6 0.00 0.00 0.00 82 1013.5
20260503131016 12 0 0.0 0.0 0.00 0.00 0.00 84 1012.1
20260503130516 12 0 0.0 0.0 0.00 0.00 0.00 84 1012.0
20260503110517 12 0 0.0 1.6 0.00 0.00 0.00 83 1012.1
20260503081537 12 0 0.0 1.6 0.00 0.00 0.00 81 1012.8
20260503081017 12 0 0.0 1.6 0.00 0.00 0.00 81 1012.8
20260503080517 12 219 0.0 1.6 0.00 0.00 0.00 81 1012.7
20260503072516 12 0 0.0 0.0 0.00 0.00 0.00 82 1012.9
20260503072016 12 0 0.0 1.6 0.00 0.00 0.00 82 1012.8
20260503071537 12 0 0.0 1.6 0.00 0.00 0.00 82 1012.9
20260503071014 12 0 0.0 0.0 0.00 0.00 0.00 82 1012.8
20260503070515 12 0 0.0 1.6 0.00 0.00 0.00 82 1012.9
20260503055016 12 0 0.0 1.6 0.00 0.00 0.00 80 1013.1
20260503054531 12 0 0.0 1.6 0.00 0.00 0.00 80 1013.1
20260503054019 12 0 0.0 1.6 0.00 0.00 0.00 81 1013.1
20260503053514 12 49 0.0 1.6 0.00 0.00 0.00 81 1013.2
20260503053039 12 0 0.0 1.6 0.00 0.00 0.00 81 1013.1
20260503052526 12 208 0.0 1.6 0.00 0.00 0.00 81 1013.2
20260503052017 12 0 0.0 1.6 0.00 0.00 0.00 81 1013.3
20260503051534 12 0 0.0 1.6 0.00 0.00 0.00 80 1013.3
20260503051018 12 0 0.0 1.6 0.00 0.00 0.00 80 1013.2
20260503050513 12 0 0.0 1.6 0.00 0.00 0.00 80 1013.3
20260503050034 12 0 0.0 1.6 0.00 0.00 0.00 80 1013.2
20260503045517 12 0 0.0 1.6 0.00 0.00 0.00 80 1013.2
20260503045016 12 0 0.0 1.6 0.00 0.00 0.00 80 1013.0
20260503044604 12 80 0.0 1.6 0.00 0.00 0.00 80 1013.2
20260503044014 12 209 0.0 1.6 0.00 0.00 0.00 80 1013.1
20260503043516 12 232 0.0 4.8 0.00 0.00 0.00 80 1013.1
20260503043033 12 89 0.0 4.8 0.00 0.00 0.00 81 1013.2
20260503042514 12 67 0.0 4.8 0.00 0.00 0.00 81 1013.2
20260503042015 12 0 0.0 4.8 0.00 0.00 0.00 81 1013.1
20260503041533 12 0 0.0 1.6 0.00 0.00 0.00 80 1013.0
20260503041018 12 0 0.0 1.6 0.00 0.00 0.00 80 1012.9
20260503040514 13 0 0.0 1.6 0.00 0.00 0.00 80 1012.9
20260503040034 13 0 0.0 1.6 0.00 0.00 0.00 79 1012.9
20260503035515 13 0 0.0 1.6 0.00 0.00 0.00 79 1012.9
20260503035014 13 0 0.0 1.6 0.00 0.00 0.00 79 1012.8
20260503034534 13 0 0.0 1.6 0.00 0.00 0.00 78 1012.8
20260503034013 13 0 0.0 1.6 0.00 0.00 0.00 78 1012.8
20260503033515 13 0 0.0 1.6 0.00 0.00 0.00 79 1012.8
20260503033037 13 0 0.0 1.6 0.00 0.00 0.00 79 1012.7
20260503032514 13 0 0.0 1.6 0.00 0.00 0.00 79 1012.6
20260503032017 13 0 0.0 1.6 0.00 0.00 0.00 79 1012.5
20260503031532 13 210 0.0 1.6 0.00 0.00 0.00 79 1012.5
20260503031016 13 0 0.0 1.6 0.00 0.00 0.00 78 1012.4
20260503030518 13 0 0.0 1.6 0.00 0.00 0.00 78 1012.3
20260503030040 13 0 0.0 1.6 0.00 0.00 0.00 78 1012.2
20260503025515 13 0 0.0 3.2 0.00 0.00 0.00 78 1012.1
20260503025016 13 0 0.0 3.2 0.00 0.00 0.00 78 1012.1
20260503024533 13 213 0.0 3.2 0.00 0.00 0.00 78 1012.1
20260503024015 13 64 0.0 4.8 0.00 0.00 0.00 78 1012.0
20260503023519 13 211 0.0 4.8 0.00 0.00 0.00 78 1012.0
20260503023040 13 0 0.0 3.2 0.00 0.00 0.00 78 1012.0
20260503022516 13 0 0.0 11.3 0.00 0.00 0.00 77 1011.9
20260503022018 13 151 1.6 11.3 0.00 0.00 0.00 76 1012.0
20260503021532 13 96 1.6 9.7 0.00 0.00 0.00 75 1012.0
20260503021020 13 52 0.0 8.0 0.00 0.00 0.00 75 1012.1
20260503020517 13 0 1.6 8.0 0.00 0.00 0.00 74 1012.1
20260503020036 14 223 0.0 8.0 0.00 0.00 0.00 74 1012.0
20260503015513 14 0 0.0 3.2 0.00 0.00 0.00 73 1012.1
20260503015019 14 0 0.0 6.4 0.00 0.00 0.00 72 1012.1
20260503014531 14 57 0.0 6.4 0.00 0.00 0.00 73 1012.1
20260503014013 14 0 0.0 3.2 0.00 0.00 0.00 73 1012.1
20260503013514 15 188 0.0 3.2 0.00 0.00 0.00 72 1012.1
20260503013032 15 134 0.0 3.2 0.00 0.00 0.00 72 1012.2
20260503012520 15 0 0.0 3.2 0.00 0.00 0.00 73 1012.1
20260503012015 15 0 0.0 8.0 0.00 0.00 0.00 72 1012.2
20260503011533 15 0 0.0 8.0 0.00 0.00 0.00 72 1012.2
20260503011015 15 263 0.0 8.0 0.00 0.00 0.00 71 1012.1
20260503010513 15 262 0.0 6.4 0.00 0.00 0.00 71 1012.2
20260503010037 15 192 0.0 6.4 0.00 0.00 0.00 71 1012.2
20260503005514 15 242 0.0 6.4 0.00 0.00 0.00 71 1012.1
20260503005013 15 51 1.6 8.0 0.00 0.00 0.00 71 1012.1
20260503004535 15 211 0.0 8.0 0.00 0.00 0.00 71 1012.2
20260503004016 15 36 1.6 8.0 0.00 0.00 0.00 71 1012.1
20260503003516 15 56 1.6 6.4 0.00 0.00 0.00 71 1012.1
20260503003035 15 87 0.0 8.0 0.00 0.00 0.00 71 1012.1
20260503002514 15 135 1.6 8.0 0.00 0.00 0.00 71 1012.2
20260503002013 16 194 0.0 9.7 0.00 0.00 0.00 71 1012.1
20260503001532 16 290 1.6 9.7 0.00 0.00 0.00 70 1012.1
20260503001015 16 286 1.6 12.9 0.00 0.00 0.00 70 1012.2
20260503000515 16 212 1.6 12.9 0.00 0.00 0.00 70 1012.2
20260503000043 16 226 1.6 11.3 0.00 0.00 0.00 69 1012.2
20260502235515 16 147 0.0 6.4 0.00 0.00 0.00 69 1012.3
20260502235014 16 193 0.0 6.4 0.00 0.00 0.00 70 1012.2
20260502234548 16 215 1.6 8.0 0.00 0.00 0.00 69 1012.2
20260502234016 16 59 0.0 8.0 0.00 0.00 0.00 69 1012.2
20260502233514 16 143 1.6 8.0 0.00 0.00 0.00 69 1012.3
20260502233032 17 0 1.6 9.7 0.00 0.00 0.00 69 1012.4
20260502232514 17 200 1.6 9.7 0.00 0.00 0.00 69 1012.4
20260502232014 17 0 1.6 8.0 0.00 0.00 0.00 69 1012.5
20260502231535 17 0 1.6 14.5 0.00 0.00 0.00 68 1012.4
20260502231018 17 43 0.0 14.5 0.00 0.00 0.00 68 1012.6
20260502230514 17 237 0.0 3.2 0.00 0.00 0.00 68 1012.6
20260502230032 17 231 0.0 8.0 0.00 0.00 0.00 67 1012.7
20260502225515 17 155 1.6 8.0 0.00 0.00 0.00 68 1012.8
20260502225015 17 64 1.6 8.0 0.00 0.00 0.00 67 1012.9
20260502224533 17 224 1.6 9.7 0.00 0.00 0.00 67 1012.9
20260502224019 17 65 1.6 9.7 0.00 0.00 0.00 66 1013.0
20260502223515 18 220 0.0 4.8 0.00 0.00 0.00 67 1013.1
20260502223039 17 137 0.0 4.8 0.00 0.00 0.00 67 1013.0
20260502222516 18 46 0.0 6.4 0.00 0.00 0.00 66 1013.1
20260502222016 18 120 0.0 6.4 0.00 0.00 0.00 66 1013.1
20260502221533 18 238 0.0 12.9 0.00 0.00 0.00 65 1013.3
20260502221016 18 248 0.0 12.9 0.00 0.00 0.00 65 1013.5
20260502220514 18 210 0.0 11.3 0.00 0.00 0.00 65 1013.5
20260502220039 18 19 0.0 8.0 0.00 0.00 0.00 65 1013.5
20260502215515 18 32 0.0 8.0 0.00 0.00 0.00 65 1013.6
20260502215015 18 170 0.0 11.3 0.00 0.00 0.00 65 1013.6
20260502214538 18 0 0.0 11.3 0.00 0.00 0.00 65 1013.7
20260502214019 18 55 0.0 11.3 0.00 0.00 0.00 65 1013.7
20260502213513 18 200 0.0 11.3 0.00 0.00 0.00 66 1013.8
20260502213031 18 9 0.0 4.8 0.00 0.00 0.00 65 1013.8
20260502212516 18 165 0.0 9.7 0.00 0.00 0.00 65 1013.9
20260502212013 18 151 1.6 9.7 0.00 0.00 0.00 65 1013.9
20260502211535 18 49 1.6 6.4 0.00 0.00 0.00 65 1014.0